Location: Davayat
(45.9471°N, 3.1105°E)
Time: 18:06:52
(UTC+00:00)

MOS 1 Rocket - Pass Details

Date: 01 December 2020
Orbit: 614 x 830 km, 97.4° (Epoch: 17 January)

Event Time Altitude Azimuth Distance (km) Brightness Sun altitude
Exits shadow 18:52:50 46° 350° (N) 1,100 4.2 -28.6°
Maximum altitude 18:54:21 68° 286° (WNW) 890 3.9 -28.9°
Drops below altitude 10° 18:59:40 10° 205° (SSW) 2,393 6.3 -29.8°
Sets 19:01:58 0° 202° (SSW) 3,299 7.1 -30.2°
